Location: Molino di Ancona
(43.6167°N, 13.3667°E)
Time: 06:49:17
(UTC+00:00)

Cosmos 1908 Rocket - Pass Details

Date: 15 December 2019
Orbit: 605 x 633 km, 82.5° (Epoch: 27 January)

Event Time Altitude Azimuth Distance (km) Brightness Sun altitude
Rises 05:26:09 0° 191° (S) 2,913 7.2 -11.6°
Reaches altitude 10° 05:28:23 10° 192° (SSW) 2,009 6.3 -11.2°
Maximum altitude 05:32:51 76° 279° (W) 655 3.5 -10.4°
Drops below altitude 10° 05:37:19 10° 5° (N) 2,016 6.0 -9.7°
Sets 05:39:34 0° 7° (N) 2,924 6.9 -9.3°
